Vertical_Velocity
-1 0 0 -1 -1 -1 -0 -0 -0 -0 -0 -1 -0 -0 -0 0 0 3 9 -13 3 4 1 2 1 -2 -2 0 -2 -10 -4 2 6 -2 14 1 2 2 -3 -5 -1 -3 4 6 -2
-2 -2 -2 -1 -2 -2 -2 -1 -0 -0 0 -0 -2 -2 -1 -1 4 7 -5 -5 2 3 5 -2 2 -4 1 -6 -6 -7 1 8 13 -4 -2 -5 -1 7 -6 1 -2 0 -2 9 -8
1 1 0 0 -1 -1 -1 -1 -1 -1 -2 -1 -0 -0 0 -1 4 4 0 -0 -1 3 2 -1 -5 1 3 -10 4 1 13 3 8 -4 2 -4 -2 8 -5 -4 2 5 2 8 -6
-2 -3 -2 -2 -2 -1 -2 -2 -2 -2 -0 1 -0 -3 -2 2 5 0 1 -2 -0 1 -1 1 -1 -3 5 -4 5 -9 9 1 6 1 -2 1 -3 8 -1 9 -0 -5 4 0 0
-2 -2 -2 -2 -1 -1 -1 -2 -2 -1 -1 -1 -1 -3 -1 1 21 -6 1 3 2 2 -0 4 -11 -1 2 10 -16 -9 17 -3 -0 -3 -1 1 1 -1 -0 -2 -3 -0 -1 2 3
-1 -0 -1 -0 -1 -0 0 -1 0 -0 -1 -1 -1 -6 -5 9 -17 3 -1 -2 4 2 1 -2 10 14 -6 -6 -15 18 3 1 -6 -2 1 -2 6 -7 6 -0 -1 2 6 -0 2
-1 -2 -2 -1 -0 -1 0 -4 1 -2 2 4 2 -8 -13 55 -17 0 7 0 -3 4 3 5 5 -20 22 6 4 4 -2 -1 -3 1 4 5 -17 2 4 5 -0 1 1 3 3
0 1 1 2 1 0 8 -6 -2 1 3 3 3 -5 -16 27 -6 -8 -4 5 8 4 2 1 4 -5 -5 4 -1 -9 -9 -13 17 -3 -0 -1 14 10 -1 5 4 -0 6 3 1
-2 -0 -2 -3 -1 -3 12 2 -1 1 2 -2 3 -6 10 -6 1 11 8 13 -7 4 6 4 -3 11 -4 -4 -6 -17 -3 -2 7 -5 -2 0 19 14 -3 2 5 0 7 4 1
1 -1 -4 -4 -6 -6 11 -7 -1 3 5 -1 -2 9 -11 -20 9 11 2 6 14 5 -0 4 -5 1 -9 -26 -66 10 4 4 2 16 -4 6 9 11 4 1 14 10 2 -2 -11
-3 -1 -6 -1 -7 -1 -1 15 -10 -7 2 2 -2 1 2 -5 8 -13 21 1 7 10 -5 13 -2 -62 -0 15 39 20 -4 2 20 17 -3 5 14 15 8 4 2 -9 -2 -5 -4
-4 0 1 -0 -12 1 -10 -7 -4 10 -7 -2 1 -1 3 -1 4 -2 8 7 6 9 14 13 -53 7 16 17 6 8 -1 -5 11 7 -5 2 11 11 8 2 0 2 4 -1 -2
-1 -2 -4 -8 -6 -17 -3 -3 0 -0 10 -4 -0 4 3 6 6 8 6 -3 10 6 19 10 -12 21 -0 9 -2 -5 -14 18 19 19 -11 11 -1 0 -6 -3 -3 -1 -6 -4 -2
-7 -9 -3 3 -3 6 -7 -3 -3 -3 1 -2 3 -4 1 5 9 0 1 7 8 12 13 -10 16 20 9 9 10 -9 31 5 15 10 -14 14 4 -10 2 -1 -2 -2 -0 -3 1
-4 -6 -14 -13 -3 -8 -8 -6 -7 -9 -2 -3 7 1 -5 -3 1 -5 2 2 7 6 10 -26 5 4 7 -3 21 -11 11 7 24 -4 15 -2 13 8 1 -3 -12 -6 -6 -2 1
-6 -4 1 6 -13 -4 -10 -7 -9 -6 -5 -1 -5 -6 -1 5 -0 -6 -4 1 -1 6 -8 16 5 9 12 17 9 11 33 8 17 18 3 -4 -3 2 -8 -9 7 -1 -3 1 4
-9 -9 -6 -13 -3 -5 -0 -5 -4 -3 -4 0 -2 -4 -5 -1 -0 -3 -5 -4 1 -1 -2 4 12 13 15 -0 7 19 18 3 13 13 -57 -6 13 14 -8 -8 -9 -7 -3 -2 4
-6 -3 -7 -16 -11 2 -5 -9 6 -8 -4 -4 -5 -1 -2 -3 -0 -2 1 -1 -1 -2 1 5 16 8 6 -0 6 -8 14 4 -10 -2 -28 25 -29 -8 -10 -5 -2 5 5 4 6
-4 -9 -9 -5 2 -7 -5 6 -15 -10 -8 -4 -4 0 -3 2 -3 -3 -3 -1 2 2 2 3 7 3 -4 1 3 -1 2 27 -4 7 21 7 -3 4 -14 -10 -6 -4 -1 -5 1
-1 -6 -4 -8 -7 -9 3 -14 -13 -7 -4 -5 -1 -6 -5 -6 -2 -2 -3 -3 0 1 4 6 7 4 -3 -0 2 -3 0 -5 36 -2 3 9 24 -3 -12 -11 -9 -4 -3 -2 -3
-16 -11 -4 -1 -6 5 -11 -10 -6 -4 -1 1 -1 2 -6 -2 -4 -2 -3 2 -1 2 4 1 8 2 6 0 0 8 -4 22 -18 65 6 -7 -10 -5 -11 -5 -5 1 -4 1 3
-8 -2 -8 -8 -1 -2 -3 -5 -7 -4 -4 -2 -3 -0 1 -3 1 0 -4 -3 -0 0 -1 5 4 -1 3 4 3 -2 -2 7 25 21 3 -3 -10 -8 -2 -8 -0 2 -8 -3 1
-4 1 -1 -7 9 -5 -8 -3 -2 -0 3 0 -0 -6 -7 -1 2 0 -1 -3 -1 -0 -3 5 3 -3 -2 4 3 2 -1 3 8 16 26 3 -20 1 9 4 -4 -3 5 2 -5
-8 -3 -1 -7 -12 -6 -2 -1 -2 -5 -8 -1 -1 0 4 5 -1 1 2 2 -0 1 1 1 2 -1 1 -1 -1 3 2 -1 7 13 20 14 -1 -10 -6 -7 -8 3 3 2 1
-5 -5 -2 3 -5 -8 -9 -4 -2 -3 -3 -3 0 1 -2 -0 1 3 -4 -5 -1 -1 -0 2 1 0 1 1 -1 7 7 4 10 3 8 1 -7 17 7 2 -7 -3 -1 -1 1
-2 -5 -6 -8 -8 -7 -6 -1 -4 -3 1 0 -3 -1 -2 -3 -1 -1 -3 -1 -2 -0 -1 1 1 -0 -1 -1 -4 -6 -7 -2 11 14 8 -1 10 -5 -2 -4 -2 -6 -2 -0 -1
-5 1 -5 -3 -5 -3 -3 -4 -3 -5 -4 -5 1 -0 -0 1 -4 -3 -1 0 -1 -1 -2 0 0 -3 -1 1 1 2 3 -2 0 -4 6 7 -10 -5 -0 3 6 6 2 2 -0
Height
5768 5765 5763 5760 5757 5754 5752 5750 5747 5745 5743 5742 5741 5740 5740 5741 5741 5742 5745 5740 5741 5744 5745 5747 5748 5751 5752 5755 5758 5756 5762 5771 5777 5780 5785 5783 5789 5793 5795 5800 5803 5805 5816 5819 5821
5765 5762 5760 5757 5753 5750 5748 5745 5742 5740 5738 5735 5734 5733 5732 5732 5732 5734 5734 5733 5732 5735 5739 5737 5737 5738 5741 5745 5747 5749 5757 5767 5773 5770 5772 5774 5781 5785 5787 5793 5799 5801 5810 5815 5816
5762 5759 5755 5751 5748 5744 5741 5738 5735 5733 5731 5729 5727 5725 5723 5722 5723 5725 5724 5724 5722 5724 5728 5728 5727 5729 5732 5735 5739 5744 5751 5760 5761 5760 5765 5767 5774 5780 5781 5786 5794 5797 5802 5809 5809
5758 5754 5750 5745 5740 5737 5733 5729 5726 5723 5721 5719 5717 5715 5714 5713 5714 5716 5714 5713 5713 5712 5714 5717 5718 5720 5724 5726 5732 5734 5743 5747 5752 5751 5755 5761 5767 5772 5774 5780 5786 5789 5795 5800 5803
5752 5747 5743 5738 5734 5730 5725 5721 5717 5713 5710 5707 5705 5702 5702 5702 5707 5699 5706 5705 5703 5703 5703 5705 5706 5710 5712 5719 5721 5722 5731 5734 5741 5740 5745 5752 5758 5762 5767 5769 5776 5782 5786 5792 5796
5746 5741 5735 5730 5726 5721 5716 5711 5706 5701 5698 5694 5691 5688 5687 5688 5690 5690 5691 5691 5691 5691 5691 5691 5697 5700 5700 5704 5707 5714 5721 5724 5727 5728 5736 5740 5747 5750 5759 5760 5768 5773 5779 5783 5788
5739 5733 5727 5721 5715 5708 5702 5695 5691 5685 5681 5677 5673 5670 5668 5675 5669 5672 5674 5675 5675 5678 5679 5681 5681 5683 5690 5693 5697 5699 5705 5710 5715 5718 5724 5730 5733 5738 5748 5752 5758 5765 5770 5774 5779
5732 5724 5716 5708 5701 5694 5687 5678 5671 5665 5659 5654 5650 5646 5647 5649 5645 5647 5650 5656 5659 5660 5665 5666 5666 5669 5672 5678 5681 5684 5689 5697 5705 5707 5712 5717 5725 5732 5738 5743 5749 5754 5761 5765 5769
5722 5713 5703 5694 5685 5675 5667 5657 5648 5639 5632 5627 5622 5617 5618 5614 5618 5625 5626 5632 5636 5641 5644 5645 5647 5652 5656 5661 5666 5670 5675 5683 5693 5696 5700 5707 5716 5723 5727 5731 5738 5742 5748 5755 5759
5710 5699 5687 5676 5664 5653 5644 5630 5619 5609 5599 5590 5585 5586 5578 5580 5587 5591 5596 5602 5608 5612 5618 5622 5622 5629 5637 5640 5641 5654 5660 5667 5678 5685 5686 5695 5704 5712 5716 5720 5728 5734 5738 5743 5748
5695 5682 5669 5656 5641 5628 5615 5602 5585 5573 5561 5556 5547 5542 5544 5546 5552 5552 5561 5569 5575 5583 5591 5597 5593 5605 5627 5634 5643 5647 5653 5659 5671 5680 5682 5689 5697 5703 5708 5712 5715 5721 5727 5733 5738
5679 5665 5648 5631 5613 5600 5581 5567 5555 5544 5527 5525 5519 5517 5514 5514 5521 5519 5526 5535 5542 5552 5561 5564 5567 5608 5611 5611 5614 5621 5633 5644 5651 5661 5667 5672 5680 5687 5693 5698 5703 5710 5716 5723 5731
5662 5645 5627 5606 5585 5566 5551 5540 5530 5519 5508 5499 5494 5490 5488 5492 5493 5493 5500 5505 5515 5524 5532 5535 5565 5580 5578 5587 5593 5604 5614 5627 5636 5645 5650 5656 5660 5667 5674 5680 5687 5695 5703 5711 5720
5644 5626 5607 5585 5565 5548 5532 5521 5508 5497 5486 5477 5471 5465 5466 5468 5468 5467 5476 5484 5490 5499 5506 5514 5549 5548 5553 5561 5573 5583 5604 5609 5617 5626 5633 5637 5643 5648 5657 5666 5674 5682 5691 5699 5707
5627 5604 5581 5562 5547 5532 5519 5505 5493 5483 5476 5469 5465 5459 5455 5455 5453 5452 5457 5462 5469 5475 5486 5499 5520 5525 5532 5546 5556 5569 5581 5588 5598 5604 5612 5617 5628 5635 5642 5650 5661 5669 5678 5687 5696
5613 5590 5569 5552 5532 5520 5506 5497 5489 5481 5473 5465 5456 5450 5448 5447 5442 5440 5442 5448 5452 5460 5469 5488 5497 5506 5513 5527 5536 5554 5561 5570 5579 5587 5586 5603 5611 5614 5619 5631 5643 5655 5663 5674 5683
5598 5577 5559 5542 5531 5515 5504 5494 5486 5478 5471 5463 5451 5444 5438 5435 5431 5428 5429 5435 5441 5447 5455 5468 5478 5486 5495 5508 5522 5535 5542 5551 5559 5560 5566 5592 5596 5592 5601 5612 5625 5637 5650 5661 5671
5588 5569 5551 5535 5522 5512 5500 5491 5485 5474 5467 5459 5449 5441 5434 5429 5425 5423 5423 5425 5429 5437 5444 5452 5462 5468 5478 5490 5503 5517 5526 5530 5535 5547 5560 5573 5568 5570 5583 5595 5608 5622 5635 5646 5655
5582 5563 5547 5535 5522 5508 5502 5496 5480 5474 5467 5459 5451 5443 5435 5429 5425 5422 5420 5421 5423 5427 5434 5439 5447 5450 5462 5476 5490 5503 5506 5526 5531 5542 5554 5550 5547 5556 5567 5580 5592 5607 5618 5630 5640
5580 5562 5548 5533 5518 5508 5504 5490 5481 5474 5466 5459 5451 5442 5435 5429 5425 5420 5418 5419 5419 5421 5425 5429 5440 5442 5449 5462 5474 5487 5499 5511 5516 5520 5529 5536 5537 5541 5551 5565 5578 5589 5601 5612 5624
5576 5560 5547 5533 5519 5513 5500 5490 5483 5477 5469 5462 5452 5445 5437 5432 5426 5421 5418 5416 5415 5417 5419 5423 5431 5433 5441 5447 5460 5475 5483 5492 5504 5506 5513 5515 5519 5529 5543 5555 5567 5577 5588 5600 5609
5573 5562 5547 5534 5524 5512 5501 5492 5485 5478 5470 5462 5454 5447 5440 5433 5428 5423 5418 5414 5411 5412 5415 5419 5422 5426 5434 5440 5448 5457 5468 5478 5488 5500 5500 5505 5512 5525 5535 5545 5555 5563 5571 5583 5592
5578 5564 5548 5535 5526 5512 5502 5496 5488 5481 5474 5466 5458 5449 5440 5434 5429 5423 5419 5415 5411 5410 5412 5415 5418 5420 5427 5435 5438 5447 5458 5467 5475 5483 5483 5492 5502 5514 5524 5534 5543 5548 5557 5566 5576
5577 5565 5553 5540 5526 5515 5506 5500 5492 5483 5475 5468 5460 5450 5444 5437 5430 5424 5419 5416 5412 5410 5410 5413 5416 5418 5422 5426 5432 5439 5448 5457 5465 5472 5475 5481 5491 5502 5513 5523 5530 5539 5545 5553 5561
5581 5567 5554 5543 5531 5520 5510 5501 5493 5486 5478 5470 5462 5455 5448 5440 5432 5426 5419 5415 5412 5410 5409 5411 5414 5416 5418 5420 5426 5433 5439 5447 5455 5461 5465 5473 5485 5490 5500 5509 5520 5527 5534 5541 5548
5583 5569 5555 5544 5532 5522 5514 5505 5496 5488 5481 5473 5465 5456 5449 5442 5435 5428 5421 5417 5412 5410 5409 5409 5412 5414 5416 5418 5421 5425 5432 5439 5442 5450 5457 5464 5474 5481 5491 5501 5508 5515 5523 5530 5536
5587 5572 5559 5548 5538 5529 5519 5509 5499 5490 5482 5474 5467 5459 5451 5445 5437 5430 5424 5419 5415 5411 5409 5409 5408 5411 5416 5417 5420 5426 5428 5434 5439 5443 5449 5455 5463 5470 5480 5488 5496 5504 5511 5519 5525